This is the latest recevied weather packets stored in our database for station/object KD8BMB. If no packets are shown the sender has not sent any weather packets the latest 10 day(s).
| Time | Temp. | Humidity | Pressure | Rain* | Wind** | Luminosity | Snow |
|---|---|---|---|---|---|---|---|
| 1777810185 | 7.22° C | 61% | 1012.5 hPa | 0 mm | - | 150 W/m² | - |
| 1777809882 | 7.22° C | 62% | 1012.7 hPa | 0 mm | - | 125 W/m² | - |
| 1777809580 | 6.67° C | 62% | 1012.5 hPa | 0 mm | - | 110 W/m² | - |
| 1777809278 | 6.67° C | 62% | 1012.7 hPa | 0 mm | - | 67 W/m² | - |
| 1777808975 | 6.67° C | 63% | 1012.4 hPa | 0 mm | - | 72 W/m² | - |
| 1777808673 | 6.11° C | 63% | 1012.6 hPa | 0 mm | - | 55 W/m² | - |
| 1777808368 | 6.11° C | 63% | 1012.5 hPa | 0 mm | - | 55 W/m² | - |
| 1777808067 | 5.56° C | 64% | 1012.4 hPa | 0 mm | - | 49 W/m² | - |
| 1777807764 | 5.56° C | 64% | 1012.5 hPa | 0 mm | - | 44 W/m² | - |
| 1777807463 | 5° C | 65% | 1012.3 hPa | 0 mm | - | 41 W/m² | - |
| 1777807163 | 5° C | 66% | 1012.4 hPa | 0 mm | - | 38 W/m² | - |
| 1777806861 | 5° C | 66% | 1012.9 hPa | 0 mm | - | 34 W/m² | - |
| 1777806557 | 4.44° C | 66% | 1012.7 hPa | 0 mm | - | 34 W/m² | - |
| 1777806253 | 3.89° C | 67% | 1012.5 hPa | 0 mm | - | 30 W/m² | - |
| 1777805949 | 3.89° C | 67% | 1012.7 hPa | 0 mm | - | 22 W/m² | - |
| 1777805646 | 3.89° C | 67% | 1012.5 hPa | 0 mm | - | 18 W/m² | - |
| 1777805344 | 3.33° C | 69% | 1012.5 hPa | 0 mm | - | 14 W/m² | - |
| 1777805042 | 2.78° C | 70% | 1012.6 hPa | 0 mm | - | 11 W/m² | - |
| 1777804739 | 2.78° C | 71% | 1012.9 hPa | 0 mm | - | 7 W/m² | - |
| 1777804437 | 2.78° C | 70% | 1012.5 hPa | 0 mm | - | 5 W/m² | - |
| 1777804134 | 2.78° C | 69% | 1012.4 hPa | 0 mm | - | 2 W/m² | - |
| 1777803830 | 2.78° C | 69% | 1012.6 hPa | 0 mm | - | 0 W/m² | - |
| 1777803526 | 2.78° C | 69% | 1012.7 hPa | 0 mm | - | 0 W/m² | - |
| 1777803224 | 2.78° C | 68% | 1012.6 hPa | 0 mm | - | 0 W/m² | - |
| 1777802921 | 2.78° C | 69% | 1012.7 hPa | 0 mm | - | 0 W/m² | - |
* Rain latest hour (hover to see other rain measurements)
** Current wind speed in m/s (hover to see current wind gust speed)